Weather in Pionerskiy

Russia / Samara Oblast     53°20′39″N   48°39′00″E
temp.,
°C
wind,
m/s
gust,
m/s
humid.,
%
clouds,
%
prec.,
mm/h
press.,
hPa
HPBL,
m
28 february, sun
sun2801:00−13nnw7138994 0.1 1003467
04:00−14nnw7138997 0.2 1005467
07:00−17nw6139090 0.0 1007354
10:00−16nnw7129083 0.0 1009372
13:00−13nnw6108888 0.0 1010511
16:00−12nnw6108793 0.0 1011576
19:00−15nw4892100 0.0 1014161
22:00−16nnw4109295 0.0 1016238
1 march, mon
mon101:00−17nw379385 0.0 1017152
04:00−19nw479452 0.0 1019118
07:00−20nnw34950 0.0 102173
10:00−17nnw35920 0.0 1023262
13:00−14nw348853 0.0 1023402
16:00−12nw358877 0.0 1023416
19:00−16w119319 0.0 102220
22:00−15ssw229842 0.0 102221
2 march, tue
tue201:00−15sw349578 0.0 101948
04:00−14ssw389586 0.0 1016200
07:00−10ssw51295100 0.1 1012374
10:00−5sw71395100 1.1 1008631
13:00−2sw71296100 1.3 1005701
16:000sw71297100 2.8 1002759
19:000wsw5998100 0.9 1000368
22:00−2wnw4109299 1.1 1001314
3 march, wed
wed301:00−4wnw5129270 0.0 1001301
04:00−4wnw4119185 0.0 1002343
07:00−5nw51390100 0.0 1002380
10:00−3nw5119092 0.0 1004559
13:00−1nw6987100 0.0 1004694
16:00−1nw5888100 0.2 1005765
19:00−3nw51192100 0.1 1007434
22:00−5nw5119396 0.1 1010331
4 march, thu
thu401:00−8nw5119062 0.0 1011254
04:00−10nw5119131 0.0 1013225
07:00−11wnw47920 0.0 1015130
10:00−9w48910 0.0 1015309
13:00−5wsw599164 0.0 1014501
16:00−2sw6118782 0.0 1012783
19:00−2sw71487100 0.0 1011765
22:00−3sw81686100 0.0 1010675